Regional Weather Roundup
Issued by NWS

Home | Current Version | Previous Version | Graphics & Text | Print | Product List | Glossary On
Versions: 1 2 3 4 5 6 7 8 9 10 11 12 13 14 15 16 17 18 19 20 21 22 23 24 25 26 27 28 29 30 31 32 33 34 35 36 37 38 39 40 41 42 43 44 45 46 47 48 49 50
000
ASUS43 KMKX 310400
RWRWI

WISCONSIN REGIONAL WEATHER ROUNDUP
NATIONAL WEATHER SERVICE MILWAUKEE/SULLIVAN WI
1100 PM CDT THU JUL 30 2015

NOTE: "FAIR" INDICATES FEW OR NO CLOUDS BELOW 12,000 FEET WITH NO
SIGNIFICANT WEATHER AND/OR OBSTRUCTIONS TO VISIBILITY.

WIZ001-002-006>008-014>016-023>028-310500-
NORTHWEST WISCONSIN

CITY           SKY/WX    TMP DP  RH WIND       PRES   REMARKS
SUPERIOR ARPT  CLEAR     66  56  68 SW7       29.93S
ASHLAND        CLEAR     65  56  72 SW7       29.92S
HAYWARD        PTCLDY    65  56  72 SW3       29.97S
SIREN          CLEAR     70  57  64 W7        29.99R
CUMBERLAND     CLEAR     63  55  77 W6        30.00S
RICE LAKE      CLEAR     66  57  72 W3        30.01S
CHETEK         CLEAR     68  59  71 SW3       29.99S
LADYSMITH      CLEAR     69  57  65 SW6       30.00S
EAU CLAIRE     NOT AVBL
MENOMONIE      CLEAR     71  56  58 SW6       30.01R
NEW RICHMOND   CLEAR     67  56  70 W5        30.02R
OSCEOLA        CLEAR     67  59  75 W6        30.03R
$$

WIZ003>005-009-010-017-018-310500-
NORTH CENTRAL WISCONSIN

CITY           SKY/WX    TMP DP  RH WIND       PRES   REMARKS
MANITOWISH WTR FAIR      61  58  90 W5        29.95S
ARBOR VITAE    PTCLDY    67  58  72 W3        29.96S
WOODRUFF       PTCLDY    67  58  72 W3        29.96S
RHINELANDER    CLEAR     63  56  78 W8        29.97S
EAGLE RIVER    CLEAR     60  59  99 SW7       29.94F
LAND O LAKES   CLEAR     59  58  97 CALM      29.95S
PHILLIPS       CLEAR     66  56  70 CALM      29.97S
TOMAHAWK       CLEAR     60  56  89 CALM      29.98R
MEDFORD        CLEAR     68  56  65 W7        30.00S
MERRILL        NOT AVBL
$$

WIZ029-030-035-036-043>047-310500-
CENTRAL WISCONSIN

CITY           SKY/WX    TMP DP  RH WIND       PRES   REMARKS
WAUSAU         CLEAR     72  56  57 W14       29.97R
MOSINEE        CLEAR     68  55  64 W7        30.00R
MARSHFIELD     CLEAR     68  56  65 W8        30.00S
STEVENS POINT  CLEAR     70  56  59 W5        30.00R
WAUPACA        CLEAR     71  56  60 SW6       29.98S
WAUTOMA        NOT AVBL
WISC RAPIDS    CLEAR     69  56  62 W7        30.01R
CAMP DOUGLAS   NOT AVBL
$$

WIZ011>013-019>022-031-037>040-048>050-310500-
NORTHEAST WISCONSIN

CITY           SKY/WX    TMP DP  RH WIND       PRES   REMARKS
ANTIGO         CLEAR     60  58  91 W6        29.98S
SHAWANO        CLEAR     67  60  78 CALM      29.96S
OCONTO         CLEAR     61  59  94 CALM      29.93S
STURGEON BAY   PTCLDY    64  57  77 SW5       29.95F
GREEN BAY      CLEAR     64  59  83 W5        29.96R
MANITOWOC      NOT AVBL
APPLETON       PTCLDY    70  54  56 W5        29.98R
CLINTONVILLE   CLEAR     64  57  77 W3        29.96S
OSHKOSH        CLEAR     71  55  56 VRB3      29.98R
$$

WIZ032>034-041-042-053>061-310500-
SOUTHWEST WISCONSIN

CITY           SKY/WX    TMP DP  RH WIND       PRES   REMARKS
LA CROSSE      CLEAR     74  59  59 SW5       30.02S
SPARTA         CLEAR     67  56  69 CALM      30.03S
VIROQUA        CLEAR     67  58  72 CALM      30.06S
BOSCOBEL       CLEAR     65  61  87 SW3       30.04S
PRAIRIE DU CHI CLEAR     66  59  78 CALM      30.04S
PLATTEVILLE    CLEAR     68  60  75 W6        30.07S
$$

WIZ056-057-062-063-064-067-068-310500-
SOUTH CENTRAL WISCONSIN

CITY           SKY/WX    TMP DP  RH WIND       PRES   REMARKS
REEDSBURG      CLEAR     71  57  62 W3        30.03R
BARABOO/DELLS  CLEAR     72  54  53 W6        30.03R
LONE ROCK      NOT AVBL
MINERAL POINT  CLEAR     68  55  64 W6        30.06S
MADISON        CLEAR     72  55  55 VRB3      30.02R
MIDDLETON      CLEAR     64  58  80 CALM      30.03S
WATERTOWN      CLEAR     70  57  64 W6        30.01S
MONROE         CLEAR     70  57  64 W12       30.05S
JANESVILLE     CLEAR     70  55  60 W5        30.03R
$$

WIZ051-052-058>065-066-070>072-310500-
SOUTHEAST WISCONSIN

CITY           SKY/WX    TMP DP  RH WIND       PRES   REMARKS
MILWAUKEE      CLEAR     77  54  44 NW8       29.99R
WAUKESHA       CLEAR     70  54  56 W8        30.01S
MILWAUKEE/TIMM CLEAR     73  50  43 W10       30.00R
RACINE         CLEAR     71  56  58 W6        30.01R
BURLINGTON     CLEAR     68  56  64 W7        30.01S
KENOSHA        CLEAR     67  57  70 W7        30.00S
FOND DU LAC    CLEAR     71  56  58 W8        29.99R
SHEBOYGAN      CLEAR     66  57  72 MISG      29.97S
WEST BEND      CLEAR     72  52  49 CALM      30.00R
JUNEAU         CLEAR     70  55  59 W6        30.02S
$$

LSZ147-162-310500-
LAKE SUPERIOR

STATION/POSITION TIME  TEMP    WIND        PRES    WAVE
                       AIR SEA DIR/SP/G            HT/PER
                 (UTC) (F)     (DEG/KT/KT) (MB)    (FT/S)
W MID LAKE BUOY  0250   58 54   20/  8/ 10 1011.6R   1/ 3
DEVILS ISLAND    0300   65     260/ 16/ 18 1011.8R
PORT WING        0300   74     240/ 11/ 15 1012.9
SAXON HARBOR     0340   68                 1012.2R
$$

LMZ867-665-643>646-310500-
LAKE MICHIGAN

STATION/POSITION TIME  TEMP    WIND        PRES    WAVE
                       AIR SEA DIR/SP/G            HT/PER
                 (UTC) (F)     (DEG/KT/KT) (MB)    (FT/S)
CHAMBERS ISLAND  0300   68     220/  4/  7 1012.9S
S GREEN BAY BUOY 0330   71 71  220/  8/ 10 1015.1R
N MID LAKE BUOY  0250   71 69  250/ 12/ 14 1011.6R   2/ 4
NORTHPORT PIER   0300   71     260/  3/  8 1012.5R
SISTER BAY       0229   72     280/ 14/ 15   N/A
ALGOMA LAKESHORE 0212             CALM       N/A
KEWAUNEE LAKESHO 0300   70     300/  3/  3 1013.5R
SHEBOYGAN LAKESH 0300   77     270/  6/  7 1014.6R
PORT WASHINGTON  0340   76     280/  3/  6 1015.6R
ATWATER BUOY     0300   74 64  270/  8/ 10 1016.4R
MILWAUKEE LAKESH 0300   79     270/  8/ 10   N/A
KENOSHA   LAKESH 0300   79     270/  6/ 10 1014.9R
$$

TC  - TEMPERATURE IN CELSIUS
VSB - VISIBILITY IN STATUTE MILES
WCI - WIND CHILL INDEX
HX  - HEAT INDEX




USA.gov is the U.S. government's official web portal to all federal, state and local government web resources and services.